CDT,Max TemperatureF,Mean TemperatureF,Min TemperatureF,Max Dew PointF,MeanDew PointF,Min DewpointF,Max Humidity, Mean Humidity, Min Humidity, Max Sea Level PressureIn, Mean Sea Level PressureIn, Min Sea Level PressureIn, Max VisibilityMiles, Mean VisibilityMiles, Min VisibilityMiles, Max Wind SpeedMPH, Mean Wind SpeedMPH, Max Gust SpeedMPH,PrecipitationIn, CloudCover, Events, WindDirDegrees
2014-3-1,1,-4,-9,-4,-11,-17,84,73,65,30.50,30.38,30.17,10,6,1,30,21,31,0.00,7,Snow,333
2014-3-2,3,-6,-14,-6,-14,-20,77,68,55,30.55,30.49,30.45,10,10,10,17,11,16,0.00,0,,298
2014-3-3,10,2,-7,7,-3,-15,85,73,62,30.49,30.32,30.11,10,10,5,17,5,18,0.00,4,Snow,150
2014-3-4,32,18,5,12,7,0,93,77,44,30.21,30.09,30.05,10,7,1,16,7,,0.00,5,Snow,82
2014-3-5,19,14,8,16,11,7,100,88,74,30.36,30.29,30.21,10,7,0,15,9,21,0.00,6,Snow,93
2014-3-6,33,24,17,30,22,16,93,90,80,30.23,29.95,29.71,10,4,2,26,17,31,0.02,4,Snow,169
2014-3-7,33,24,12,30,22,10,100,90,80,30.19,29.93,29.70,10,5,1,32,18,40,0.00,5,,310
2014-3-8,26,16,6,19,12,3,93,84,69,30.33,30.25,30.15,10,9,2,18,12,,0.00,4,Snow,281
2014-3-9,46,32,19,36,28,16,87,77,66,30.13,29.83,29.68,10,10,10,21,13,25,0.00,0,,211
2014-3-10,50,42,35,45,37,32,100,85,70,29.74,29.70,29.68,10,8,0,12,6,,0.00,1,Fog,259
2014-3-11,41,34,28,37,33,23,100,89,75,30.06,29.86,29.68,10,9,2,25,14,32,0.09,4,Rain-Snow,357
2014-3-12,30,26,23,27,20,16,93,76,64,30.13,30.08,29.99,10,10,7,28,15,33,0.00,6,Snow,312
2014-3-13,55,42,30,39,34,27,93,75,54,29.99,29.77,29.57,10,10,10,16,10,18,0.00,1,,211
2014-3-14,44,37,30,36,32,27,93,81,66,29.97,29.76,29.56,10,10,10,25,14,29,0.00,4,Rain,301
2014-3-15,30,27,24,27,22,14,93,80,64,30.36,30.12,29.93,10,9,1,17,10,21,0.00,3,Snow,33
2014-3-16,28,22,15,19,12,7,79,62,46,30.41,30.27,29.92,10,10,10,18,9,25,0.00,1,,97
2014-3-17,48,37,26,34,26,19,87,68,50,29.90,29.58,29.44,10,10,10,25,17,31,0.00,2,,166
2014-3-18,37,32,28,30,29,28,100,85,75,29.81,29.62,29.46,10,8,1,25,13,30,0.00,5,Snow,39
2014-3-19,42,35,28,34,29,27,100,85,61,29.99,29.92,29.81,10,8,2,23,15,28,0.02,7,Rain-Snow,306
2014-3-20,50,38,26,37,31,27,100,81,47,30.00,29.93,29.81,10,6,0,16,3,21,0.00,3,Fog,150
2014-3-21,46,32,19,37,28,12,87,78,70,30.22,29.89,29.72,10,10,10,37,19,45,0.00,3,,280
2014-3-22,24,17,10,10,8,3,85,67,53,30.49,30.38,30.22,10,10,10,30,22,39,0.00,1,,331
2014-3-23,28,19,10,18,10,7,92,67,43,30.50,30.41,30.30,10,10,10,12,4,12,0.00,3,,294
2014-3-24,33,27,21,27,20,14,93,79,52,30.31,30.22,30.15,10,8,1,24,7,32,0.00,5,Snow,255
2014-3-25,28,19,10,18,10,3,93,66,43,30.32,30.22,30.12,10,10,2,26,14,33,0.00,3,Snow,303
2014-3-26,55,36,17,39,21,10,79,54,33,30.10,29.76,29.45,10,10,10,29,14,39,0.00,2,,158
2014-3-27,46,38,30,39,35,28,100,96,76,29.77,29.49,29.40,10,6,1,29,15,37,0.16,8,Rain-Snow,244
2014-3-28,30,24,19,27,23,16,93,87,80,30.26,30.06,29.78,10,10,10,22,15,26,0.00,4,,327
2014-3-29,48,34,19,34,24,14,93,70,41,30.27,30.16,29.94,10,10,10,20,6,28,0.00,0,,171
2014-3-30,64,52,39,41,35,30,81,58,34,29.94,29.79,29.66,10,10,7,21,15,31,0.00,0,,170
2014-3-31,69,45,21,48,37,18,100,70,33,29.66,29.46,29.27,10,9,2,34,18,45,0.01,3,Rain-Thunderstorm,164